User: anonymous   Login
Location: Unspecified
(43.4680°N, 87.1740°E)
Time: 03:27:35
(UTC+00:00)
Language:

FALCON 9 DEB - Orbit

View from above orbital plane
View from above orbital plane
View from above satellite
View from above satellite

Ground track
Ground track

The orbit data is extracted from the following two-line orbital elements,

1 46084U 20055BK  21169.41339088  .00011302  00000-0  12064-3 0  9992
2 46084  53.0118 193.9505 0009975 254.5119 105.4793 15.64461064 53814
Epoch (UTC): 18 June 2021 09:55:16
Eccentricity: 0.0009975
inclination: 53.0118°
perigee height: 368 km
apogee height: 381 km
right ascension of ascending node: 193.9505°
argument of perigee: 254.5119°
revolutions per day: 15.64461064
mean anomaly at epoch: 105.4793°
orbit number at epoch: 5381

The dashed part of the orbit path shows where the satellite is in the earth's shadow,  

DLR